Location: Newark
(39.4242°N, 80.8531°W)
Time: 12:36:50
(UTC+00:00)

CAS-4B - Visible Passes

Search period start: 08 April 2020 00:00
Search period end: 18 April 2020 00:00
Orbit: 528 x 545 km, 43.0° (Epoch: 08 April)

Date Brightness Start Highest point End Pass type
(mag) Time Alt. Az. Time Alt. Az. Time Alt. Az.
08 Apr ? 00:33:30 10° W 00:37:36 64° NNW 00:41:43 10° ENE visible
08 Apr ? 02:14:03 10° WNW 02:17:31 47° NNW 02:17:31 47° NNW visible
09 Apr ? 00:23:19 10° W 00:27:23 58° N 00:31:30 10° ENE visible
09 Apr ? 02:03:50 10° WNW 02:07:48 54° N 02:07:48 54° N visible
10 Apr ? 01:53:38 10° WNW 01:57:43 58° N 01:58:02 56° NNE visible
11 Apr ? 01:43:24 10° WNW 01:47:30 64° NNE 01:48:15 52° ENE visible
12 Apr ? 01:33:10 10° WNW 01:37:17 72° NNE 01:38:27 45° E visible
12 Apr ? 03:13:33 10° W 03:13:48 11° W 03:13:48 11° W visible
13 Apr ? 01:22:55 10° WNW 01:27:04 82° NNE 01:28:40 36° ESE visible
13 Apr ? 03:03:27 10° W 03:04:01 13° W 03:04:01 13° W visible
14 Apr ? 01:12:41 10° WNW 01:16:50 85° SSW 01:18:54 28° ESE visible
14 Apr ? 02:53:26 10° W 02:54:15 14° W 02:54:15 14° W visible
15 Apr ? 01:02:27 10° WNW 01:06:35 72° SSW 01:09:11 22° ESE visible
15 Apr ? 02:43:33 10° W 02:44:32 14° WSW 02:44:32 14° WSW visible
16 Apr ? 00:52:14 10° WNW 00:56:18 59° SSW 00:59:29 16° SE visible
16 Apr ? 02:33:55 10° WSW 02:34:51 12° WSW 02:34:51 12° WSW visible
17 Apr ? 00:42:03 10° WNW 00:46:01 48° SSW 00:49:52 11° SE visible
